Regional Weather Roundup
Issued by NWS

Home | Current Version | Previous Version | Graphics & Text | Print | Product List | Glossary On
Versions: 1 2 3 4 5 6 7 8 9 10 11 12 13 14 15 16 17 18 19 20 21 22 23 24 25 26 27 28 29 30 31 32 33 34 35 36 37 38 39 40 41 42 43 44 45 46 47 48 49 50
000
ASUS43 KLMK 240510
RWRKY
KENTUCKY REGIONAL WEATHER ROUNDUP
NATIONAL WEATHER SERVICE LOUISVILLE KY
100 AM EDT THU JUL 24 2014

NOTE "FAIR" INDICATES FEW OR NO CLOUDS BELOW 12,000 FEET
WITH NO SIGNIFICANT WEATHER AND/OR OBSTRUCTIONS TO VISIBILITY.

KYZ001>023-026-027-061>063-070>075-240600-
WESTERN AND SOUTH CENTRAL KENTUCKY

CITY           SKY/WX    TMP DP  RH WIND       PRES   REMARKS
PADUCAH        CLOUDY    75  68  78 N14       30.03S
HENDERSON      CLOUDY    72  57  60 N12G17    30.03S
OWENSBORO      CLOUDY    73  67  81 N7        30.02S
HOPKINSVILLE   MOCLDY    74  71  90 NW7       30.02S
BOWLING GREEN  PTCLDY    75  68  78 CALM      30.00S
GLASGOW        PTCLDY    70  70 100 CALM      29.99F
$$

KYZ024-025-028>034-038-045-046-053-240600-
NORTH CENTRAL KENTUCKY

CITY           SKY/WX    TMP DP  RH WIND       PRES   REMARKS
LOUISVILLE/SDF CLOUDY    73  66  78 N13       30.00S
LOUISVILLE/LOU CLOUDY    72  67  84 N8        30.00S
FORT KNOX      MOCLDY    72  68  86 N10       30.00S
$$

KYZ035>037-039>044-047>052-055>060-089>105-240600-
NORTHEAST KENTUCKY

CITY           SKY/WX    TMP DP  RH WIND       PRES   REMARKS
LEXINGTON      PTCLDY    72  67  84 SE5       29.99F
COVINGTON      LGT RAIN  69  65  86 NE12      30.01S
FRANKFORT      CLOUDY    74  70  87 N8        29.98S
$$

KYZ054-064>069-076>088-106>120-240600-
SOUTHEAST KENTUCKY

CITY           SKY/WX    TMP DP  RH WIND       PRES   REMARKS
JACKSON        CLOUDY    68  66  93 CALM      30.02F FOG
LONDON         CLOUDY    71  67  87 N5        30.02S
SOMERSET       PTCLDY    70  70 100 CALM      30.01F FOG
MIDDLESBORO    RAIN      70  69  95 CALM      30.03R
MONTICELLO     MOCLDY    70  69  96 CALM      30.02S FOG
$$




USA.gov is the U.S. government's official web portal to all federal, state and local government web resources and services.